Weather History for Gainesville, FL

Change the Weather History Date:

Tuesday, December 25, 2012

  Actual Average Record
Temperature  
Mean Temperature 62 °F 55 °F  
Max Temperature 74 °F 66 °F 82 °F (1964)
Min Temperature 49 °F 43 °F 15 °F (1983)
Degree Days  
Heating Degree Days 3 11  
Month to date heating degree days 113 229  
Since 1 July heating degree days 306 390  
Cooling Degree Days 0 0  
Month to date cooling degree days 19 24  
Year to date cooling degree days 2981 2640  
Growing Degree Days 12 (Base 50)    
Moisture  
Dew Point 53 °F    
Average Humidity 75    
Maximum Humidity 96    
Minimum Humidity 53    
Precipitation  
Precipitation 0.00 in 0.08 in 2.32 in (1913)
Month to date precipitation 5.09 1.92  
Year to date precipitation 54.40 46.85  
Snow  
Snow 0.00 in 0.00 in 0.00 in ()
Month to date snowfall 0.0 0.0  
Since 1 July snowfall 0.0 0.0  
Snow Depth 0.00 in    
Sea Level Pressure  
Sea Level Pressure 29.97 in    
Wind  
Wind Speed 3 mph (SE)    
Max Wind Speed 13 mph    
Max Gust Speed 20 mph    
Visibility 10 miles    
Events      
T = Trace of Precipitation, MM = Missing Value Source: NWS Daily Summary

Daily Weather History Graph

Daily Weather History Graph

Search for Another Location

Airport:

Trip Planner

Search our weather history database for the weather conditions in past years. The results will help you decide how hot, cold, wet, or windy it might be!

Date:

Astronomy

Dec. 25, 2012 Rise Set
Actual Time 7:22 AM EST 5:36 PM EST
Civil Twilight 6:55 AM EST 6:03 PM EST
Nautical Twilight 6:26 AM EST 6:32 PM EST
Astronomical Twilight 5:56 AM EST 7:02 PM EST
Moon 3:41 PM EST (12/25) 4:56 AM EST (12/25)
Length of Visible Light 11h 07m
Length of Day
10h 14m
Waxing Gibbous, 93% of the Moon is Illuminated
Dec 25
Waxing Gibbous
Dec 28
Full
Jan 4
Last Quarter
Jan 11
New
Jan 18
First Quarter

Hourly Weather History & Observations

Time (EST) Temp. Dew Point Humidity Pressure Visibility Wind Dir Wind Speed Gust Speed Precip Events Conditions
12:53 AM 52.0 °F 48.9 °F 89% 30.00 in 10.0 mi Calm Calm - N/A   Mostly Cloudy
1:53 AM 51.1 °F 48.0 °F 89% 29.99 in 10.0 mi Calm Calm - N/A   Clear
2:53 AM 51.1 °F 48.9 °F 92% 29.99 in 10.0 mi Calm Calm - N/A   Clear
3:53 AM 51.1 °F 48.9 °F 92% 29.98 in 10.0 mi Calm Calm - N/A   Clear
4:53 AM 50.0 °F 48.0 °F 93% 29.98 in 10.0 mi Calm Calm - N/A   Clear
5:53 AM 50.0 °F 48.0 °F 93% 29.99 in 10.0 mi Calm Calm - N/A   Clear
6:16 AM 50.0 °F 48.2 °F 94% 30.00 in 10.0 mi Calm Calm - N/A   Mostly Cloudy
6:53 AM 52.0 °F 50.0 °F 93% 30.01 in 10.0 mi Calm Calm - N/A   Overcast
7:03 AM 51.8 °F 50.0 °F 94% 30.01 in 10.0 mi Calm Calm - N/A   Mostly Cloudy
7:53 AM 51.1 °F 48.9 °F 92% 30.02 in 10.0 mi Calm Calm - N/A   Clear
8:53 AM 55.9 °F 54.0 °F 93% 30.02 in 10.0 mi Calm Calm - N/A   Clear
9:53 AM 60.1 °F 55.0 °F 83% 30.03 in 10.0 mi Calm Calm - N/A   Clear
10:53 AM 66.0 °F 57.0 °F 73% 30.01 in 10.0 mi South 5.8 mph - N/A   Clear
11:53 AM 70.0 °F 57.9 °F 65% 29.99 in 10.0 mi SE 9.2 mph - N/A   Clear
12:53 PM 72.0 °F 57.9 °F 61% 29.96 in 10.0 mi SSE 9.2 mph - N/A   Clear
1:53 PM 73.0 °F 55.9 °F 55% 29.94 in 10.0 mi SE 9.2 mph - N/A   Clear
2:53 PM 72.0 °F 55.9 °F 57% 29.93 in 10.0 mi SE 5.8 mph - N/A   Clear
3:53 PM 71.1 °F 55.0 °F 57% 29.93 in 10.0 mi SE 6.9 mph - N/A   Clear
4:53 PM 69.1 °F 55.9 °F 63% 29.92 in 10.0 mi South 3.5 mph - N/A   Clear
5:53 PM 63.0 °F 57.0 °F 81% 29.93 in 10.0 mi Calm Calm - N/A   Clear
6:53 PM 60.1 °F 55.9 °F 86% 29.94 in 10.0 mi Calm Calm - N/A   Clear
7:53 PM 57.0 °F 54.0 °F 89% 29.94 in 10.0 mi Calm Calm - N/A   Clear
8:53 PM 57.9 °F 55.9 °F 93% 29.91 in 10.0 mi East 5.8 mph - N/A   Clear
9:53 PM 57.9 °F 55.9 °F 93% 29.91 in 10.0 mi Calm Calm - N/A   Clear
10:53 PM 59.0 °F 55.9 °F 90% 29.91 in 10.0 mi Calm Calm - N/A   Clear
11:53 PM 60.1 °F 57.0 °F 90% 29.88 in 10.0 mi SE 6.9 mph - N/A   Clear